This demonstration page uses our WeatherBlox Daily Observations layout. Learn more.

Left ArrowRight Arrow

41.55636, -103.73856

Hourly Observations for December 16, 2021

Temp ( °F °C ) Dew Point ( °F °C ) Humidity (%) Winds ( mph kmh ) Pressure ( in mb ) Visibility ( mi km ) Precip ( " mm )
12:58 am 00:58 Partly Cloudy 25 -3.7 -1 -18.2 32 32 W 24 39 30.03 1017 10 16 0.00 0.00
1:58 am 01:58 Partly Cloudy 22 -5.5 0 -17.6 38 38 W 12 19 30.05 1018 10 16 0.00 0.00
2:58 am 02:58 Mostly Cloudy 20 -6.5 1 -17.4 42 42 W 9 15 30.08 1019 10 16 0.00 0.00
3:58 am 03:58 Mostly Cloudy 17 -8.5 -2 -18.9 43 43 WSW 8 13 30.10 1019 10 16 0.00 0.00
4:58 am 04:58 Clear 17 -8.4 -1 -18.6 44 44 WSW 12 19 30.09 1019 10 16 0.00 0.00
5:58 am 05:58 Clear 17 -8.5 -1 -18.5 45 45 W 10 17 30.11 1020 10 16 0.00 0.00
6:58 am 06:58 Clear 20 -6.8 -1 -18.6 39 39 SW 3 6 30.09 1019 10 16 0.00 0.00
7:58 am 07:58 Sunny 17 -8.4 1 -17.5 48 48 SW 9 15 30.10 1019 10 16 0.00 0.00
8:58 am 08:58 Sunny 28 -2.5 1 -17.1 32 32 SSW 7 11 30.07 1018 10 16 0.00 0.00
9:58 am 09:58 Sunny 35 1.5 1 -17.3 23 23 SSW 8 13 30.02 1017 10 16 0.00 0.00
11:58 am 11:58 Sunny 38 3.4 2 -16.7 22 22 S 20 31 29.96 1015 10 16 0.00 0.00
12:58 pm 12:58 Sunny 40 4.7 4 -15.4 22 22 S 17 28 29.91 1013 10 16 0.00 0.00
1:56 pm 13:56 Sunny 42 5.7 6 -14.7 22 22 S 17 28 29.88 1012 10 16 0.00 0.00
2:56 pm 14:56 Sunny 43 6 7 -14.1 22 22 S 16 26 29.88 1012 10 16 0.00 0.00
3:58 pm 15:58 Mostly Sunny 41 5 8 -13.2 26 26 S 14 22 29.90 1013 10 16 0.00 0.00
4:58 pm 16:58 Partly Cloudy 38 3.1 8 -13.3 29 29 Calm 29.92 1013 10 16 0.00 0.00
5:58 pm 17:58 Mostly Cloudy 35 1.4 8 -13.1 33 33 Calm 29.94 1014 10 16 0.00 0.00
6:58 pm 18:58 Cloudy 35 1.7 9 -12.7 34 34 E 6 9 29.93 1014 10 16 0.00 0.00
7:58 pm 19:58 Cloudy 35 1.8 10 -12.1 35 35 E 6 9 29.95 1014 10 16 0.00 0.00
8:58 pm 20:58 Mostly Cloudy 33 0.4 12 -11.3 41 41 E 6 9 29.91 1013 10 16 0.00 0.00
9:58 pm 21:58 Mostly Cloudy 34 1.3 12 -11.2 39 39 Calm 29.89 1012 10 16 0.00 0.00
10:58 pm 22:58 Mostly Cloudy 30 -1.2 13 -10.6 49 49 SSW 3 6 29.99 1016 10 16 0.00 0.00
11:58 pm 23:58 Mostly Cloudy 25 -3.8 13 -10.5 60 60 Calm 29.92 1013 10 16 0.00 0.00

Powered by AerisWeather